Погода в Рубцовске

Погода в Рубцовске : погода сейчас, прогноз погоды и архив. Всё, что Вы хотите узнать о погоде в Рубцовске!

Хотите узнать прогноз погоды в Рубцовске? Тогда Вам сюда: Погода в Рубцовске

Поиск расширенной информации на нашем сайте:

Другие новости

Новости СМИ2

Главная страница сайта

Новости сайта

03.07.2017

Напоминаем, что на нашем специализированном сайте Метеоцентр.Азия вы можете получить высокодетализированные автоматические прогнозы погоды по пунктам России, СНГ и мира в авиационном формате (включающие направление и скорость ветра, видимость, явления погоды, количество и форму облачности, нижнюю и верхнюю границу облачности).

Рекомендуем: нужен офис? купить офис в раойне 1-я Брестская улица интересные предложения

Погода в Рубцовске - сегодня

Время (UTC), дата Ветер
(°,м/с) 
Видим.   Явления Облачность Т
(°С)
Тd
(°С)
f(%) Тe
(°С)
Pmin
(гПа)
dP
(гПа)
Po
(мм)
O2
(г/м3)
Тmin Tmax R s Состояние
почвы
00 15.10.18 140 (ЮВ) 20000 м    ясно 
-1.6 -5.4 75 -3  1026.7  749  304  -1.6        замёрзшая 
03 15.10.18 140 (ЮВ) 20000 м    3/0 верхняя 
[Ci sp]
+1.6 -3.4 69 1026.1  -0.3  749  300  -3.6         
06 15.10.18 140 (ЮВ) 20000 м    10/0 верхняя 
[Cs]
+6.3 -3.3 50 +5  1023.7  -1.9  748  295           
09 15.10.18 100 (В) 20000 м    8/3 1000 м верхняя 
[Sc|Ci fib]
+9.3 -7.2 30 +9  1020.4  -2.9  745  291           
12 15.10.18 070 (В) 20000 м    10/0 средняя, верхняя 
[Ac trans|Ci fib]
+5.8 -7.6 37 +5  1019.3  -1.4  744  294    +9.7       
15 15.10.18 060 (СВ) 20000 м    10/0 средняя, верхняя 
[Ac trans|Ci sp]
+2 -6.8 52 +1  1017.6  -2  743  298           
18 15.10.18 040 (СВ) 20000 м    10/0 средняя 
[Ac und]
+2.4 -5.5 56 +1  1015.3  -2.2  741  297           
21 15.10.18 030 (СВ) 20000 м    10/0 средняя 
[Ac und]
+2.3 -4.2 62 +1  1013.3  -2  740  296           
00 16.10.18 060 (СВ) 20000 м  слаб. ливневой дождь  10/10 300 м кучево-дожд. 
[Cb cap]
+1.5 -2.2 76 +1  1013.2  -0.1  740  297  +1.3    0.0     
12 16.10.18 210 (ЮЗ) 4{13}  20000 м    10/0 средняя, верхняя 
[Ac lent|Cc]
+6.3 -3.2 51 +5  1018.5  2.6  744  293    +10.5  0.3     
15 16.10.18 210 (ЮЗ) 20000 м    3/0 верхняя 
[Ci sp]
+2 -3.7 66 +1  1021  2.1  745  299           
18 16.10.18 200 (Ю) 20000 м    ясно 
-0.3 -5.1 70 -2  1022.7  1.5  746  302           
21 16.10.18 190 (Ю) 20000 м    4/0 верхняя 
[Ci sp]
-0.7 -5.8 68 -2  1023.4  0.6  747  302           
00 17.10.18 170 (Ю) 20000 м    3/0 верхняя 
[Ci sp]
+0.1 -4.8 70 -2  1023.9  0.5  747  301  -1         
03 17.10.18 170 (Ю) 20000 м    10/0 средняя, верхняя 
[Ac und|Ci sp]
+2.1 -3.8 65 1024.4  0.8  748  299           
06 17.10.18 190 (Ю) 6{10}  20000 м    10/3 600 м средняя, верхняя 
[Sc|Ac und|Ci sp]
+6.3 -2.8 52 +4  1023.7  -0.3  748  295           
12 17.10.18 240 (ЮЗ) 6{14}  20000 м    3/3 600 м 
[Sc]
+2.9 -2.8 66 1025.6  1.6  749  299    +7.2       
15 17.10.18 190 (Ю) 20000 м    ясно 
-1.1 -3.5 84 -4  1027.7  1.7  750  304           
18 17.10.18 180 (Ю) 20000 м    ясно 
-1.3 -4.2 81 -5  1026.9  -0.8  749  304           
21 17.10.18 170 (Ю) 6-10{11}  20000 м    ясно 
-0.7 -4.6 75 -4  1025.3  -1.5  748  303           
00 18.10.18 170 (Ю) 7-11{13}  20000 м    ясно 
-0.1 -3.8 76 -4  1023.4  -1.7  747  301  -1.5         
12 18.10.18 180 (Ю) 9-15{20}  20000 м    10/3 1000 м средняя 
[Sc|Ac und]
+4.9 -4 52 +1  1017.1  -0.7  743  294    +6.6       
00 19.10.18 170 (Ю) 7-12{15}  4000 м  ливневой дождь  10/10 210 м кучево-дожд. 
[Cb cap]
+1.7 +0.2 90 -2  1016  -0.2  742  297  +1.5       
12 19.10.18 150 (ЮВ) 4{10}  20000 м  {ливн. осадки}  10/3 600 м кучево-дожд., средняя, верхняя 
[Cb cap|Ac cuf|Ci fib]
+3.5 +0.9 83 +2  1016.2  0.4  742  295    +5.3     
00 20.10.18 190 (Ю) 20000 м  слаб. ливневой снег  10/10 600 м кучево-дожд. 
[Cb cap]
+0.2 -1.4 89 -3  1018.7  0.1  743  299  +0.2    0.0  <0.5  равномерный
мокрый или
старый снег
100% 
Время (UTC), дата Ветер
(°,м/с) 
Видим.   Явления Облачность Т
(°С)
Тd
(°С)
f(%) Тe
(°С)
Pmin
(гПа)
dP
(гПа)
Po
(мм)
O2
(г/м3)
Тmin Tmax R s Состояние
почвы

Для получения пояснительной информации подведите курсор к названию столбца.

ПОГОДА в Рубцовске - архив

Всё, что Вы хотите узнать о погоде в Рубцовске - удобно и подробно!

Выберите нужную дату (начиная с 1 января 2015* года) и нажмите кнопку "Найти".
Будут отображены архивные сводки погоды по пункту Рубцовск, начиная с указанной даты.


Отображать данные в формате CSV (для использования в таблицах Excel)


Внимание! Наш архив погоды предназначен исключительно для личного некоммерческого использования в познавательных целях. Если Вам необходимы официальные справки о состоянии погоды (для производственных, юридических, коммерческих и т.п. целей), обращайтесь в органы Росгидромета.

*Примечание: данная дата относится к архиву по метеостанциям СССР (Россия, СНГ, Балтия).
Архив по метеостанциям Зарубежной Европы и Азии (кроме Китая) хранится 10 дней, по другим регионам земного шара (Китай, Африка, Америка, Австралия, Океания) - 1 день.

Рубцовск - район местоположения метеостанции


Название, широта, долгота, высота метеостанции:
Рубцовск 51.5°ш. 81.2°д. 219 м над ур. моря [Российская Федерация]

Дополнительная информация

В oтличие oт бoльшинства пoгoдных сайтoв мы публикуем пoдрoбную метеoинфoрмацию в детальнoм прoфессиoнальнoм фoрмате.

Характеристики температуры и влажнoсти вoздуха измеряются на высoте 2 м в тени вдали oт зданий и деревьев.
Скoрoсть ветра измеряется на высoте 10 м (на урoвне рoста челoвека скoрoсть ветра ниже в 1.5-2 раза). Если метеoстанция нахoдится в гoрoде или в лесу, тo скoрoсть ветра занижена на 2-4 м/с пo сравнению с oткрытым местoм. Скoрoсть ветра над акватoриями крупных рек и oзёр, а также на вершинах хoлмoв на 2-5 м/с выше, чем в oбычных услoвиях.
Атмoсфернoе давление в разных тoчках местнoсти мoжет значительнo oтличаться oт давления на метеoстанции, в зависимoсти oт услoвий рельефа (при пoдъёме на 10 м давление пoнижается примернo на 1 мм рт.ст.).